Location: Le Rocchette
(44.3500°N, 7.8333°E)
Time: 18:58:50
(UTC+00:00)

Helios 1A Rocket - Pass Details

Date: 17 November 2019
Orbit: 563 x 588 km, 98.3° (Epoch: 15 December)

Event Time Altitude Azimuth Distance (km) Brightness Sun altitude
Rises 05:20:48 0° 10° (N) 2,809 6.4 -11.8°
Reaches altitude 10° 05:22:59 10° 7° (N) 1,901 5.5 -11.5°
Maximum altitude 05:27:02 62° 287° (WNW) 651 2.9 -10.8°
Drops below altitude 10° 05:31:03 10° 207° (SSW) 1,871 5.4 -10.1°
Sets 05:33:11 0° 204° (SSW) 2,759 6.3 -9.7°
